Regional Weather Roundup
Issued by NWS

Home | Current Version | Previous Version | Text Only | Print | Product List | Glossary On
Versions: 1 2 3 4 5 6 7 8 9 10 11 12 13 14 15 16 17 18 19 20 21 22 23 24 25 26 27 28 29 30 31 32 33 34 35 36 37 38 39 40 41 42 43 44 45 46 47 48 49 50
000
ASUS43 KLOT 250908
RWRIL

ILLINOIS REGIONAL WEATHER ROUNDUP
NATIONAL WEATHER SERVICE CHICAGO/ROMEOVILLE IL
400 AM CDT WED APR 25 2018

NOTE: "FAIR" INDICATES FEW OR NO CLOUDS BELOW 12,000 FEET WITH NO
SIGNIFICANT WEATHER AND/OR OBSTRUCTIONS TO VISIBILITY.

* THESE STATIONS ARE NOT UNDER NWS QUALITY CONTROL. THEY ALSO MAY NOT
  REPORT WEATHER SUCH AS PRECIPITATION OR FOG.

ILZ001-002-007-009-015-016-024-251000-
NORTHWEST ILLINOIS

CITY           SKY/WX    TMP DP  RH WIND       PRES   REMARKS
MOLINE         FAIR      54  46  74 NE15      30.06R
STERLING*      FAIR      47  33  58 NE12      30.08R
SAVANNA*       CLOUDY    50  32  50 NE10      30.10R
$$

ILZ003-004-008-010-011-017-018-251000-
NORTH CENTRAL ILLINOIS

CITY           SKY/WX    TMP DP  RH WIND       PRES   REMARKS
ROCKFORD       FAIR      45  32  60 NE15      30.10R
FREEPORT*      MOCLDY    45  32  60 NE13      30.11R
ROCHELLE*      FAIR      43  32  65 NE9       30.08R
DE KALB*       FAIR      44  32  62 NE17      30.07R
PERU*          FAIR      48  36  62 NE15G22   30.06R
$$

ILZ005-006-012>014-019>023-251000-
NORTHEAST ILLINOIS

CITY           SKY/WX    TMP DP  RH WIND       PRES   REMARKS
CHICAGO-OHARE  CLOUDY    46  29  51 N21       30.05R
CHICAGO-MIDWAY CLOUDY    45  32  60 N16       30.04S
AURORA         FAIR      46  30  53 NE21      30.04S
LANSING*       CLOUDY    43  36  75 N10G16    30.03S
JOLIET*        CLOUDY    49  33  55 N13       30.03R
WAUKEGAN       FAIR      42  32  67 N14G30    30.06R
DUPAGE AIRPORT FAIR      45  30  55 NE13G23   30.05R
KANKAKEE*      MOCLDY    45  38  77 N10       30.02R
WHEELING       MOCLDY    46  31  55 N13G25    30.07S
MORRIS*        FAIR      45  35  68 N5        30.03R
ROMEOVILLE*    CLOUDY    46  32  59 N23       30.04R
NORTHERLY ISL    N/A     42  32  67 NW21        N/A
$$

LMZ740>746-251000-
SOUTHERN LAKE MICHIGAN

STATION/POSITION SKY/WX   TEMP    WIND        PRES    VSBY  WAVE
                          AIR SEA DIR/SP/G                  HT/PER
                          (F)     (DEG/KT/KT) (MB)    (MI)  (FT/S)
HARRISON CRIB              42     350/ 21/ 23   N/A
BURNHAM HARBOR             42     330/ 17/ 22   N/A
CALUMET HARBOR             42     330/ 16/ 23 1016.5R
BURNS HARBOR               42     360/ 10/ 13 1016.9S
MICHIGAN CITY              40     350/  9/ 10   N/A
ST. JOSEPH                 43 43  340/ 16/ 21 1016.4          2/ 4
$$

ILZ025>027-034>036-040-047-049-050-058-095>099-251000-
WEST-CENTRAL ILLINOIS

CITY           SKY/WX    TMP DP  RH WIND       PRES   REMARKS
QUINCY         CLOUDY    53  43  68 NW12      30.01S
GALESBURG*     FAIR      52  44  75 N14       30.03S
MACOMB*        PTCLDY    51  41  68 NW12      30.03S
JACKSONVILLE*  CLEAR     48  36  63 NW7       29.99S
PITTSFIELD*    CLEAR     54  43  67 NW9       30.01S
$$

ILZ028>032-037-038-041>044-048-051>054-059>061-251000-
CENTRAL ILLINOIS

CITY           SKY/WX    TMP DP  RH WIND       PRES   REMARKS
PONTIAC        FAIR      48  47  97 N13       30.03R
BLOOMINGTON    FAIR      48  46  93 NE12      30.02R FOG
DECATUR        FOG       45  45 100 N7        29.98R VSB 1/2
PEORIA         FAIR      53  48  83 NE10      30.03R
LACON*         FAIR      49  45  86 N10       30.05R
LINCOLN*       FAIR      47  47 100 N5        30.01R FOG
SPRINGFIELD    FAIR      47  45  93 CALM      29.99R
TAYLORVILLE    FAIR      47  47 100 SW5       29.98R FOG
$$

ILZ033-039-045-046-055>057-062-063-251000-
EAST-CENTRAL ILLINOIS

CITY           SKY/WX    TMP DP  RH WIND       PRES   REMARKS
CHAMPAIGN      FAIR      49  47  93 N10       29.98R
DANVILLE*      FAIR      45  45 100 N8        29.94F FOG
RANTOUL*       FAIR      49  48  96 N12       29.99R FOG
MATTOON        FOG       43  43 100 NW5       29.96R VSB 1/4
PARIS*         FAIR      47  47  99 N6        29.97S FOG
$$

ILZ079-100>102-251000-
SOUTHWEST ILLINOIS

CITY           SKY/WX    TMP DP  RH WIND       PRES   REMARKS
ALTON          CLEAR     44  44  99 CALM      29.99R
BELLEVILLE     FOG       44  44  99 CALM      29.98R VSB 1/4
CAHOKIA*       CLEAR     43  41  93 CALM      29.98R
SPARTA*        CLEAR     48  48 100 CALM      30.00R FOG
$$

ILZ064>066-069>071-074>076-080>082-084>086-088>090-092>094-251000-
SOUTH-CENTRAL ILLINOIS

CITY           SKY/WX    TMP DP  RH WIND       PRES   REMARKS
CARBONDALE     FOG       45  45 100 CALM      29.98R VSB 3/4
CAIRO*         FAIR      51  51  99 W3        29.99S
EFFINGHAM*     FOG       45  45 100 CALM      29.98S VSB 1/4
MARION         FOG      N/A N/A N/A CALM      29.99S VSB 3/4
MT. VERNON       N/A     44  44 100 CALM      29.97F FOG
CENTRALIA*     MOCLDY    48  48 100 SW3       29.97S FOG
SALEM*         FOG       47  46  94 SW3       29.96F VSB 1/4
METROPOLIS*    FAIR      48  48  99 CALM      29.99R
$$

ILZ067-068-072-073-078-083-087-091-251000-
SOUTHEAST ILLINOIS

CITY           SKY/WX    TMP DP  RH WIND       PRES   REMARKS
LAWRENCEVILLE  FAIR      49  48  97 MISG      29.95F FOG
FLORA*         FAIR      49  48  97 CALM      29.97S FOG
FAIRFIELD*     FAIR      47  47 100 CALM      29.95S FOG
HARRISBURG*    FAIR      48  48 100 CALM      29.98R FOG
ROBINSON*      FOG       44  44 100 CALM      29.96S VSB 1/4
CARMI*         FAIR      49  49 100 CALM      29.96S FOG
$$

ABBREVIATIONS USED IN REMARKS
   TC - TEMPERATURE IN CELSIUS
  WCI - WIND CHILL INDEX
   HX - HEAT INDEX
  VSB - VISIBILITY
$$




USA.gov is the U.S. government's official web portal to all federal, state and local government web resources and services.